User: anonymous   Login
Location: Waldport
(44.4270°N, 124.0680°W)
Time: 05:49:20
(UTC-08:00)
Language:

Cosmos 1570 Rocket - Orbit

View from above orbital plane
View from above orbital plane
View from above satellite
View from above satellite

Ground track
Ground track

The orbit data is extracted from the following two-line orbital elements,

1 15032U 84056B   14328.21455602  .00000215  00000-0  85343-4 0  5448
2 15032 074.0717 346.9477 0017234 020.9768 047.3491 14.34455953592702
Epoch (UTC): 24 November 2014 05:08:57
Eccentricity: 0.0017234
inclination: 74.0717°
perigee height: 764 km
apogee height: 789 km
right ascension of ascending node: 346.9477°
argument of perigee: 20.9768°
revolutions per day: 14.34455953
mean anomaly at epoch: 47.3491°
orbit number at epoch: 59270

The dashed part of the orbit path shows where the satellite is in the earth's shadow,  

DLR